| time (UTC) | temp F | wind direction | speed knots | gust knots | rain 1hr in | rain 24hr in | rain mn in | humidity % | barometer mb |
| 20260906081518 | 58 | 213 | 0.0 | 0.0 | 0.01 | 0.01 | 0.01 | 1 | 1012.7 |
| 20260906080013 | 58 | 213 | 0.0 | 0.0 | 0.01 | 0.01 | 0.01 | 1 | 1012.6 |
| 20260906074506 | 58 | 213 | 0.0 | 0.0 | 0.01 | 0.01 | 0.01 | 1 | 1012.5 |
| 20260906071554 | 58 | 213 | 0.0 | 0.0 | 0.00 | 0.00 | 0.00 | 1 | 1012.7 |
| 20260906070056 | 58 | 213 | 0.0 | 0.0 | 0.00 | 0.00 | 0.00 | 1 | 1012.6 |
| 20260906064549 | 58 | 213 | 0.0 | 0.0 | 0.00 | 0.00 | 0.00 | 1 | 1012.6 |
| 20260906061538 | 59 | 213 | 0.0 | 0.0 | 0.00 | 0.00 | 0.00 | 1 | 1012.8 |
| 20260906060034 | 59 | 213 | 0.0 | 0.0 | 0.00 | 0.00 | 0.00 | 1 | 1012.8 |
| 20260906054542 | 59 | 213 | 0.0 | 0.0 | 0.00 | 0.00 | 0.00 | 1 | 1012.8 |
| 20260906051522 | 60 | 213 | 0.0 | 0.0 | 0.00 | 0.00 | 0.00 | 1 | 1012.8 |
| 20260906050018 | 60 | 213 | 0.0 | 0.0 | 0.00 | 0.00 | 0.00 | 1 | 1012.7 |
| 20260906044516 | 60 | 213 | 0.0 | 0.0 | 0.00 | 0.00 | 0.00 | 1 | 1012.7 |
| 20260906041507 | 61 | 213 | 0.0 | 0.0 | 0.00 | 0.00 | 0.00 | 1 | 1012.7 |
| 20260906040004 | 61 | 213 | 0.0 | 0.0 | 0.00 | 0.00 | 0.00 | 1 | 1012.7 |
| 20260906034610 | 61 | 213 | 0.0 | 0.0 | 0.00 | 0.00 | 0.00 | 1 | 1012.7 |
| 20260906031553 | 62 | 213 | 0.0 | 0.0 | 0.00 | 0.00 | 0.00 | 1 | 1012.5 |
| 20260906030049 | 62 | 213 | 0.0 | 0.0 | 0.00 | 0.00 | 0.00 | 1 | 1012.4 |
| 20260906024546 | 62 | 213 | 0.0 | 0.0 | 0.00 | 0.00 | 0.00 | 1 | 1012.4 |
| 20260906021537 | 63 | 213 | 0.0 | 0.0 | 0.00 | 0.00 | 0.00 | 1 | 1012.4 |
| 20260906020034 | 63 | 213 | 0.0 | 0.0 | 0.00 | 0.00 | 0.00 | 1 | 1012.2 |
| 20260906014529 | 64 | 213 | 0.0 | 0.0 | 0.00 | 0.00 | 0.00 | 1 | 1012.0 |
| 20260906011526 | 65 | 213 | 0.0 | 0.0 | 0.00 | 0.00 | 0.00 | 1 | 1011.9 |
| 20260906010022 | 65 | 213 | 0.0 | 0.0 | 0.00 | 0.00 | 0.00 | 1 | 1011.9 |
| 20260906004518 | 65 | 213 | 0.0 | 0.0 | 0.00 | 0.00 | 0.00 | 1 | 1011.8 |
| 20260906001518 | 67 | 33 | 0.0 | 0.0 | 0.00 | 0.00 | 0.00 | 1 | 1011.4 |
| 20260906000018 | 67 | 33 | 0.0 | 0.0 | 0.00 | 0.00 | 0.00 | 1 | 1011.4 |
| 20260905234516 | 68 | 33 | 0.0 | 0.0 | 0.00 | 0.00 | 0.00 | 1 | 1011.3 |
| 20260905231559 | 70 | 33 | 0.0 | 0.0 | 0.00 | 0.00 | 0.00 | 1 | 1011.5 |
| 20260905230100 | 72 | 33 | 0.0 | 0.0 | 0.00 | 0.00 | 0.00 | 1 | 1011.3 |
| 20260905224611 | 73 | 33 | 0.0 | 0.0 | 0.00 | 0.00 | 0.00 | 1 | 1011.2 |
| 20260905223151 | 73 | 33 | 0.0 | 0.0 | 0.00 | 0.00 | 0.00 | 1 | 1011.1 |
| 20260905221551 | 74 | 33 | 0.0 | 0.0 | 0.00 | 0.00 | 0.00 | 1 | 1010.9 |
| 20260905220051 | 74 | 34 | 0.0 | 0.0 | 0.00 | 0.00 | 0.00 | 1 | 1010.8 |
| 20260905214551 | 74 | 34 | 0.0 | 0.0 | 0.00 | 0.00 | 0.00 | 1 | 1010.6 |
| 20260905213150 | 74 | 16 | 0.0 | 0.0 | 0.00 | 0.00 | 0.00 | 1 | 1010.4 |
| 20260905211550 | 74 | 28 | 0.0 | 0.0 | 0.00 | 0.00 | 0.00 | 1 | 1010.5 |
| 20260905210053 | 74 | 284 | 0.0 | 0.0 | 0.00 | 0.00 | 0.00 | 1 | 1010.3 |
| 20260905204541 | 74 | 259 | 0.0 | 0.0 | 0.00 | 0.00 | 0.00 | 1 | 1010.2 |
| 20260905203138 | 75 | 355 | 0.0 | 0.0 | 0.00 | 0.00 | 0.00 | 10 | 1010.3 |
| 20260905201535 | 75 | 355 | 0.0 | 0.0 | 0.00 | 0.00 | 0.00 | 26 | 1010.3 |
| 20260905200033 | 75 | 9 | 0.0 | 0.0 | 0.00 | 0.00 | 0.00 | 27 | 1010.3 |
| 20260905194526 | 75 | 16 | 0.0 | 0.0 | 0.00 | 0.00 | 0.00 | 32 | 1010.3 |
| 20260905193123 | 75 | 67 | 0.0 | 0.0 | 0.00 | 0.00 | 0.00 | 32 | 1010.3 |
| 20260905191518 | 76 | 22 | 0.0 | 0.0 | 0.00 | 0.00 | 0.00 | 21 | 1010.3 |
| 20260905190012 | 76 | 15 | 0.0 | 0.0 | 0.00 | 0.00 | 0.00 | 27 | 1010.3 |
| 20260905184517 | 75 | 19 | 0.0 | 1.7 | 0.00 | 0.00 | 0.00 | 34 | 1010.3 |
| 20260905183103 | 76 | 19 | 0.0 | 0.0 | 0.00 | 0.00 | 0.00 | 32 | 1010.3 |
| 20260905181500 | 76 | 5 | 0.0 | 0.9 | 0.00 | 0.00 | 0.00 | 31 | 1010.4 |
| 20260905180104 | 75 | 64 | 0.0 | 0.0 | 0.00 | 0.00 | 0.00 | 33 | 1010.4 |
| 20260905174552 | 75 | 5 | 0.0 | 0.0 | 0.00 | 0.00 | 0.00 | 21 | 1010.4 |
| 20260905173105 | 75 | 55 | 0.0 | 0.0 | 0.00 | 0.00 | 0.00 | 24 | 1010.5 |
| 20260905171547 | 74 | 11 | 0.0 | 1.7 | 0.00 | 0.00 | 0.00 | 24 | 1010.8 |
| 20260905170045 | 75 | 92 | 0.0 | 0.9 | 0.00 | 0.00 | 0.00 | 5 | 1010.7 |
| 20260905164538 | 74 | 355 | 0.0 | 0.0 | 0.00 | 0.00 | 0.00 | 12 | 1010.8 |
| 20260905163033 | 74 | 360 | 0.0 | 0.0 | 0.00 | 0.00 | 0.00 | 1 | 1010.7 |
| 20260905161529 | 74 | 42 | 0.0 | 0.9 | 0.00 | 0.00 | 0.00 | 1 | 1010.9 |
| 20260905160023 | 73 | 37 | 0.0 | 0.9 | 0.00 | 0.00 | 0.00 | 1 | 1011.0 |
| 20260905154519 | 73 | 63 | 0.0 | 0.9 | 0.00 | 0.00 | 0.00 | 1 | 1011.0 |
| 20260905153019 | 71 | 55 | 0.0 | 0.9 | 0.00 | 0.00 | 0.00 | 1 | 1011.1 |
| 20260905151521 | 71 | 53 | 0.0 | 0.9 | 0.00 | 0.00 | 0.00 | 1 | 1011.2 |
| 20260905150013 | 70 | 20 | 0.0 | 3.5 | 0.00 | 0.00 | 0.00 | 1 | 1011.3 |
| 20260905144521 | 68 | 38 | 0.0 | 0.0 | 0.00 | 0.00 | 0.00 | 1 | 1011.1 |
| 20260905143006 | 66 | 105 | 0.0 | 0.0 | 0.00 | 0.00 | 0.00 | 1 | 1011.2 |
| 20260905141503 | 66 | 100 | 0.0 | 0.0 | 0.00 | 0.00 | 0.00 | 1 | 1011.2 |
| 20260905140059 | 65 | 53 | 0.0 | 0.0 | 0.00 | 0.00 | 0.00 | 1 | 1011.3 |
| 20260905134557 | 64 | 119 | 0.0 | 0.0 | 0.00 | 0.00 | 0.00 | 1 | 1011.2 |
| 20260905133050 | 63 | 142 | 0.0 | 0.0 | 0.00 | 0.00 | 0.00 | 1 | 1011.1 |
| 20260905131544 | 62 | 144 | 0.0 | 0.0 | 0.00 | 0.00 | 0.00 | 1 | 1011.1 |
| 20260905130040 | 62 | 148 | 0.0 | 0.0 | 0.00 | 0.00 | 0.00 | 1 | 1011.2 |
| 20260905124536 | 61 | 151 | 0.0 | 0.0 | 0.00 | 0.00 | 0.00 | 1 | 1011.6 |
| 20260905123032 | 60 | 151 | 0.0 | 0.0 | 0.00 | 0.00 | 0.00 | 1 | 1011.8 |
| 20260905121529 | 60 | 218 | 0.0 | 0.0 | 0.00 | 0.00 | 0.00 | 1 | 1011.8 |
| 20260905120024 | 59 | 218 | 0.0 | 0.0 | 0.00 | 0.00 | 0.00 | 1 | 1011.4 |
| 20260905114522 | 59 | 218 | 0.0 | 0.0 | 0.00 | 0.00 | 0.00 | 1 | 1011.1 |
| 20260905113017 | 59 | 218 | 0.0 | 0.0 | 0.00 | 0.00 | 0.00 | 1 | 1010.9 |
| 20260905111519 | 59 | 218 | 0.0 | 0.0 | 0.00 | 0.00 | 0.00 | 1 | 1011.0 |
| 20260905110012 | 59 | 218 | 0.0 | 0.0 | 0.00 | 0.00 | 0.00 | 1 | 1010.8 |
| 20260905104508 | 58 | 217 | 0.0 | 0.0 | 0.00 | 0.00 | 0.00 | 1 | 1010.4 |
| 20260905103006 | 58 | 218 | 0.0 | 0.0 | 0.00 | 0.00 | 0.00 | 1 | 1010.2 |
| 20260905101605 | 58 | 217 | 0.0 | 0.0 | 0.00 | 0.00 | 0.00 | 1 | 1010.2 |
| 20260905100120 | 59 | 217 | 0.0 | 0.0 | 0.00 | 0.00 | 0.00 | 1 | 1010.0 |
| 20260905094551 | 59 | 218 | 0.0 | 0.0 | 0.00 | 0.00 | 0.00 | 1 | 1009.8 |
| 20260905093045 | 59 | 218 | 0.0 | 0.0 | 0.00 | 0.00 | 0.00 | 1 | 1010.0 |
| 20260905091555 | 59 | 218 | 0.0 | 0.0 | 0.00 | 0.00 | 0.00 | 1 | 1009.9 |
| 20260905090040 | 60 | 218 | 0.0 | 0.0 | 0.00 | 0.00 | 0.00 | 1 | 1009.9 |
| 20260905084542 | 60 | 218 | 0.0 | 0.0 | 0.00 | 0.00 | 0.00 | 1 | 1009.9 |
| 20260905083038 | 60 | 218 | 0.0 | 0.0 | 0.00 | 0.00 | 0.00 | 1 | 1010.0 |